FW7109 Weather Reports


time (UTC)temp
C
wind
direction
speed
KPH
gust
KPH
rain 1hr
cm
rain 24hr
cm
rain mn
cm
humidity
%
barometer
mb
20260906124554 24 63 1.6 6.4 0.00 0.00 0.00 88 1015.4
20260906123049 24 61 1.6 6.4 0.00 0.00 0.00 88 1015.1
20260906121557 23 0 0.0 3.2 0.00 0.00 0.00 89 1014.9
20260906120047 23 0 0.0 6.4 0.00 0.00 0.00 88 1014.9
20260906114602 24 32 1.6 8.0 0.00 0.00 0.00 88 1014.9
20260906113103 24 66 1.6 6.4 0.00 0.00 0.00 88 1014.8
20260906111548 24 95 1.6 4.8 0.00 0.00 0.00 88 1014.5
20260906110047 24 0 0.0 3.2 0.00 0.00 0.00 88 1014.1
20260906104551 24 0 0.0 0.0 0.00 0.00 0.00 87 1014.0
20260906103052 25 0 1.6 4.8 0.00 0.00 0.00 87 1014.0
20260906101547 25 0 0.0 3.2 0.00 0.00 0.00 87 1013.6
20260906100044 25 43 0.0 4.8 0.00 0.00 0.00 88 1013.6
20260906094552 25 44 3.2 6.4 0.00 0.00 0.00 88 1013.3
20260906093048 25 0 0.0 3.2 0.00 0.00 0.00 88 1013.2
20260906091550 25 0 0.0 3.2 0.00 0.00 0.00 88 1013.1
20260906090046 25 0 0.0 3.2 0.00 0.00 0.00 88 1012.8
20260906084550 26 0 0.0 1.6 0.00 0.00 0.00 87 1012.8
20260906083048 26 39 0.0 4.8 0.00 0.00 0.00 87 1012.7
20260906081555 26 39 0.0 6.4 0.00 0.00 0.00 86 1012.4
20260906080047 26 0 0.0 4.8 0.00 0.00 0.00 86 1012.5
20260906074545 26 39 1.6 4.8 0.00 0.00 0.00 85 1012.7
20260906073049 26 44 0.0 4.8 0.00 0.00 0.00 85 1012.9
20260906071548 26 17 1.6 4.8 0.00 0.00 0.00 84 1012.9
20260906070048 26 219 1.6 4.8 0.00 0.00 0.00 84 1013.0
20260906064551 26 217 1.6 4.8 0.00 0.00 0.00 83 1013.2
20260906063050 26 0 0.0 3.2 0.00 0.00 0.00 83 1013.0
20260906061548 25 0 0.0 3.2 0.00 0.00 0.00 84 1013.2
20260906060112 25 0 0.0 0.0 0.00 0.00 0.00 83 1013.3
20260906054551 25 0 0.0 0.0 0.00 0.00 0.00 83 1013.4
20260906053049 25 0 0.0 1.6 0.00 0.00 0.00 84 1013.3
20260906051550 25 0 0.0 0.0 0.00 0.00 0.00 85 1013.4
20260906044554 25 0 0.0 0.0 0.00 0.00 0.00 85 1013.0
20260906043048 25 0 0.0 0.0 0.00 0.00 0.00 85 1012.9
20260906041548 25 0 0.0 0.0 0.00 0.00 0.00 84 1012.9
20260906040058 26 0 0.0 0.0 0.00 0.00 0.00 82 1012.7
20260906034557 26 0 0.0 0.0 0.00 0.00 0.00 82 1012.5
20260906033049 26 0 0.0 0.0 0.00 0.00 0.00 81 1012.6
20260906031609 26 0 0.0 0.0 0.00 0.00 0.00 80 1012.6
20260906030052 27 0 0.0 0.0 0.00 0.00 0.00 78 1012.5
20260906024556 27 0 0.0 0.0 0.00 0.00 0.00 77 1012.5
20260906023105 27 0 0.0 0.0 0.00 0.00 0.00 75 1012.5
20260906021548 28 0 0.0 0.0 0.00 0.00 0.00 74 1012.4
20260906020056 28 0 0.0 1.6 0.00 0.00 0.00 72 1012.3
20260906014547 28 0 0.0 3.2 0.00 0.00 0.00 71 1012.0
20260906013052 28 0 0.0 0.0 0.00 0.00 0.00 70 1011.8
20260906011553 29 0 0.0 1.6 0.00 0.00 0.00 68 1011.5
20260906010050 30 0 0.0 1.6 0.00 0.00 0.00 66 1011.7
20260906004555 30 0 0.0 0.0 0.00 0.00 0.00 66 1011.4
20260906003054 31 0 0.0 3.2 0.00 0.00 0.00 64 1011.3
20260906001549 31 0 0.0 3.2 0.00 0.00 0.00 62 1011.3
20260906000058 32 0 1.6 4.8 0.00 0.00 0.00 60 1011.2
20260905234547 32 248 1.6 9.7 0.00 0.00 0.00 58 1011.5
20260905233101 33 0 0.0 4.8 0.00 0.00 0.00 57 1011.5
20260905231551 34 220 1.6 6.4 0.00 0.00 0.00 55 1011.6
20260905230050 35 236 1.6 8.0 0.00 0.00 0.00 52 1011.4
20260905224551 36 0 0.0 4.8 0.00 0.00 0.00 54 1011.1
20260905223049 36 225 0.0 3.2 0.00 0.00 0.00 53 1011.3
20260905221601 36 0 0.0 3.2 0.00 0.00 0.00 48 1011.1
20260905220057 37 35 0.0 11.3 0.00 0.00 0.00 46 1011.1
20260905214556 37 36 0.0 4.8 0.00 0.00 0.00 44 1011.2
20260905213048 38 0 1.6 9.7 0.00 0.00 0.00 44 1011.2
20260905211550 37 38 1.6 8.0 0.00 0.00 0.00 45 1011.2
20260905210050 37 38 1.6 6.4 0.00 0.00 0.00 46 1011.5
20260905204548 37 32 3.2 9.7 0.00 0.00 0.00 46 1011.7
20260905203048 37 0 1.6 8.0 0.00 0.00 0.00 48 1011.7
20260905201546 36 41 3.2 9.7 0.00 0.00 0.00 48 1011.9
20260905194549 36 42 0.0 4.8 0.00 0.00 0.00 47 1012.1
20260905193046 36 0 1.6 6.4 0.00 0.00 0.00 46 1012.5
20260905191546 38 47 0.0 6.4 0.00 0.00 0.00 43 1012.5
20260905190051 38 211 0.0 4.8 0.00 0.00 0.00 46 1012.6
20260905184554 38 250 0.0 6.4 0.00 0.00 0.00 46 1012.8
20260905183048 37 240 0.0 12.9 0.00 0.00 0.00 46 1013.2
20260905181545 37 0 0.0 4.8 0.00 0.00 0.00 50 1013.3
20260905180100 37 207 3.2 8.0 0.00 0.00 0.00 46 1013.6
20260905174550 37 242 1.6 9.7 0.00 0.00 0.00 48 1013.5
20260905173109 36 5 1.6 6.4 0.00 0.00 0.00 48 1013.6
20260905171553 36 26 1.6 9.7 0.00 0.00 0.00 49 1013.7
20260905170053 36 49 3.2 9.7 0.00 0.00 0.00 52 1014.0
20260905164555 36 213 1.6 4.8 0.00 0.00 0.00 51 1014.1
20260905163047 35 271 1.6 9.7 0.00 0.00 0.00 54 1014.3
20260905161559 35 65 0.0 8.0 0.00 0.00 0.00 55 1014.7
20260905160058 35 221 1.6 8.0 0.00 0.00 0.00 55 1014.8
20260905154552 35 41 0.0 4.8 0.00 0.00 0.00 58 1014.8
20260905153048 34 342 0.0 3.2 0.00 0.00 0.00 61 1014.7
20260905151558 33 0 1.6 6.4 0.00 0.00 0.00 63 1014.4
20260905150051 32 0 0.0 3.2 0.00 0.00 0.00 63 1014.4
20260905144549 32 0 0.0 4.8 0.00 0.00 0.00 65 1014.3
20260905143049 31 0 0.0 4.8 0.00 0.00 0.00 71 1014.3
20260905141547 30 0 0.0 3.2 0.00 0.00 0.00 72 1014.3
20260905140058 29 0 0.0 3.2 0.00 0.00 0.00 76 1014.6
20260905134558 27 0 0.0 0.0 0.00 0.00 0.00 82 1014.6
20260905133049 26 0 0.0 0.0 0.00 0.00 0.00 87 1014.7
20260905131547 26 0 0.0 0.0 0.00 0.00 0.00 88 1014.9